Showing default

NOAA 4, 7529

Orbit data source: Space-Track

NOAA 4, 7529 is a payload satellite owned by NOAA (US) in SSO that was launched on Fri, 15 Nov 1974 UTC via a DELTA 2310 launch vehicle from the Air Force Western Test Range (AFWTR). Payload-class satellites include a variety of spacecraft equipped with specific instruments for various scientific and technological missions. These include communications satellites like Starlink; space stations such as the ISS; scientific satellites like the Hubble; Earth observation satellites from companies like Planet Labs, Umbra, and HawkEye 360; GPS; miniature CubeSats for education and research; and military/defense satellites.

Loading next visibility...
Identifier
7529, 1974-089A
Orbit
SSO
Country
Flag of USUS
Related business
Manufacturer
RCA/East Windsor
Mission
Non-operational spacecraft
Bus & Motor
TIROS M, Unknown motor
Mass
345 kg wet, 345 kg dry
Launch date (UTC)
1974-11-15 (51 years ago)
Launch vehicle
DELTA 2310
Launch site
Air Force Western Test Range (AFWTR)
Object type
Payload
Rocket body
Debris
Shape & HBR
Unknown
Radar Cross Section
Large (>1 m²)

Expand to show TLE details & history
Last TLE update: 17 hours ago

TLE from 17 hours ago
0 NOAA 4
1 07529U 74089A   25347.97802219 -.00000017  00000-0  18456-3 0  9996
2 07529 102.0070 353.8054 0009022 189.3237 226.7469 12.53199306336321
Epoch: 2025-12-13T23:28Z
TLE epoch observation values (Epoch: 2025-12-13T23:28:21.117Z)
Latitude
54.27448°
Longitude
-98.29279°
Altitude
1,464.707 km
Speed
7.133 km/s
True Right ascension
22h 26m 46s
True Declination
54° 07' 34"
Sunlit
Object was in daylight at epoch
Visualization orbit readout
Latitude
Unknown
Longitude
Unknown
Altitude
Unknown
Speed
Unknown
Apparent Right ascension
Unknown
Apparent Declination
Unknown
Sunlit
N/A
Visualization observer readout
Local Sidereal Time
15:31:57
Azimuth
Unknown
Elevation
Unknown
Doppler factor
Unknown
Orbital elements
Apogee altitude
1,455.761 km
Perigee altitude
1,441.638 km
Semi-major axis
7,826.836 km
Eccentricity
0.0009
Inclination
102.007°
RAAN
353.8054°
Arg. of periapsis
189.3237°
True anomaly
226.67166°
Mean anomaly
226.7469°
Eccentric anomaly
226.70927°
Mean motion
3.13447 °/min
Orbital period
114.85 mins
BSTAR
0.00018456
Loading maneuver chart data...
Computing Atmospheric mass density...

Documentation

Showing up to 5 results
|